| time (UTC) | temp C | wind direction | speed KPH | gust KPH | rain 1hr cm | rain 24hr cm | rain mn cm | humidity % | barometer mb |
| 20260507115349 | 11 | 294 | 0.0 | 4.8 | 0.00 | 0.00 | 0.05 | 83 | 1012.0 |
| 20260507114847 | 11 | 294 | 0.0 | 4.8 | 0.00 | 0.00 | 0.05 | 85 | 1012.0 |
| 20260507114612 | 11 | 327 | 0.0 | 3.2 | 0.00 | 0.00 | 0.05 | 87 | 1011.9 |
| 20260507113846 | 11 | 329 | 0.0 | 0.0 | 0.00 | 0.00 | 0.05 | 90 | 1011.9 |
| 20260507113347 | 11 | 329 | 0.0 | 1.6 | 0.00 | 0.00 | 0.05 | 91 | 1011.9 |
| 20260507112844 | 11 | 329 | 0.0 | 1.6 | 0.00 | 0.00 | 0.05 | 91 | 1012.0 |
| 20260507112341 | 11 | 329 | 0.0 | 0.0 | 0.00 | 0.00 | 0.05 | 92 | 1012.0 |
| 20260507111840 | 11 | 329 | 0.0 | 1.6 | 0.00 | 0.00 | 0.05 | 92 | 1011.9 |
| 20260507111341 | 11 | 329 | 0.0 | 1.6 | 0.00 | 0.00 | 0.05 | 93 | 1012.0 |
| 20260507110841 | 11 | 329 | 0.0 | 0.0 | 0.00 | 0.00 | 0.05 | 93 | 1011.9 |
| 20260507110335 | 11 | 329 | 0.0 | 0.0 | 0.00 | 0.00 | 0.05 | 93 | 1011.8 |
| 20260507105829 | 11 | 329 | 0.0 | 0.0 | 0.00 | 0.00 | 0.05 | 93 | 1011.8 |
| 20260507105326 | 11 | 329 | 0.0 | 0.0 | 0.00 | 0.00 | 0.05 | 93 | 1011.8 |
| 20260507104827 | 11 | 329 | 0.0 | 0.0 | 0.00 | 0.00 | 0.05 | 93 | 1011.7 |
| 20260507104603 | 11 | 329 | 0.0 | 0.0 | 0.00 | 0.00 | 0.05 | 93 | 1011.7 |
| 20260507103824 | 11 | 329 | 0.0 | 0.0 | 0.00 | 0.00 | 0.05 | 93 | 1011.7 |
| 20260507103325 | 11 | 329 | 0.0 | 0.0 | 0.00 | 0.00 | 0.05 | 93 | 1011.7 |
| 20260507102823 | 11 | 329 | 0.0 | 0.0 | 0.00 | 0.00 | 0.05 | 93 | 1011.4 |
| 20260507102321 | 11 | 329 | 0.0 | 0.0 | 0.00 | 0.00 | 0.05 | 93 | 1011.3 |
| 20260507101818 | 11 | 329 | 0.0 | 0.0 | 0.00 | 0.00 | 0.05 | 93 | 1011.4 |
| 20260507101316 | 11 | 329 | 0.0 | 0.0 | 0.00 | 0.00 | 0.05 | 92 | 1011.3 |
| 20260507100815 | 11 | 329 | 0.0 | 0.0 | 0.00 | 0.00 | 0.05 | 92 | 1011.2 |
| 20260507100311 | 11 | 329 | 0.0 | 0.0 | 0.00 | 0.00 | 0.05 | 93 | 1011.1 |
| 20260507095811 | 11 | 329 | 0.0 | 0.0 | 0.00 | 0.00 | 0.05 | 92 | 1011.2 |
| 20260507095535 | 11 | 329 | 0.0 | 0.0 | 0.00 | 0.00 | 0.05 | 93 | 1011.3 |
| 20260507095032 | 11 | 329 | 0.0 | 0.0 | 0.00 | 0.00 | 0.05 | 93 | 1011.2 |
| 20260507094305 | 11 | 329 | 0.0 | 0.0 | 0.00 | 0.00 | 0.05 | 93 | 1011.2 |
| 20260507093805 | 11 | 329 | 0.0 | 0.0 | 0.00 | 0.00 | 0.05 | 92 | 1011.2 |
| 20260507093302 | 11 | 329 | 0.0 | 0.0 | 0.00 | 0.00 | 0.05 | 92 | 1011.0 |
| 20260507092804 | 11 | 329 | 0.0 | 0.0 | 0.00 | 0.00 | 0.05 | 92 | 1011.1 |
| 20260507092302 | 11 | 329 | 0.0 | 0.0 | 0.00 | 0.00 | 0.05 | 92 | 1011.2 |
| 20260507091800 | 11 | 329 | 0.0 | 0.0 | 0.00 | 0.00 | 0.05 | 92 | 1011.1 |
| 20260507091257 | 11 | 329 | 0.0 | 0.0 | 0.00 | 0.00 | 0.05 | 92 | 1011.2 |
| 20260507091019 | 11 | 329 | 0.0 | 0.0 | 0.00 | 0.00 | 0.05 | 93 | 1011.3 |
| 20260507090519 | 11 | 329 | 0.0 | 0.0 | 0.00 | 0.00 | 0.05 | 93 | 1011.3 |
| 20260507090013 | 11 | 329 | 0.0 | 0.0 | 0.00 | 0.00 | 0.05 | 93 | 1011.1 |
| 20260507085511 | 12 | 329 | 0.0 | 0.0 | 0.00 | 0.00 | 0.05 | 93 | 1010.9 |
| 20260507084747 | 12 | 329 | 0.0 | 0.0 | 0.00 | 0.00 | 0.05 | 93 | 1010.9 |
| 20260507084246 | 12 | 329 | 0.0 | 0.0 | 0.00 | 0.00 | 0.05 | 93 | 1010.8 |
| 20260507083744 | 11 | 329 | 0.0 | 0.0 | 0.00 | 0.00 | 0.05 | 93 | 1010.8 |
| 20260507082956 | 12 | 329 | 0.0 | 0.0 | 0.00 | 0.48 | 0.05 | 93 | 1010.8 |
| 20260507082717 | 12 | 329 | 0.0 | 0.0 | 0.00 | 0.48 | 0.05 | 93 | 1010.7 |
| 20260507081955 | 12 | 329 | 0.0 | 0.0 | 0.00 | 0.48 | 0.05 | 93 | 1010.5 |
| 20260507081454 | 12 | 329 | 0.0 | 0.0 | 0.00 | 0.48 | 0.05 | 93 | 1010.4 |
| 20260507081213 | 12 | 329 | 0.0 | 0.0 | 0.00 | 0.48 | 0.05 | 92 | 1010.4 |
| 20260507080452 | 12 | 329 | 0.0 | 0.0 | 0.00 | 0.48 | 0.05 | 92 | 1010.3 |
| 20260507075949 | 12 | 329 | 0.0 | 0.0 | 0.00 | 0.48 | 0.05 | 92 | 1010.3 |
| 20260507075448 | 12 | 329 | 0.0 | 0.0 | 0.00 | 0.48 | 0.05 | 92 | 1010.2 |
| 20260507074946 | 12 | 329 | 0.0 | 0.0 | 0.00 | 0.48 | 0.05 | 91 | 1010.3 |
| 20260507074447 | 12 | 329 | 0.0 | 1.6 | 0.00 | 0.48 | 0.05 | 91 | 1010.2 |
| 20260507073948 | 12 | 329 | 0.0 | 1.6 | 0.00 | 0.48 | 0.05 | 91 | 1010.1 |
| 20260507073444 | 12 | 330 | 0.0 | 1.6 | 0.00 | 0.48 | 0.05 | 91 | 1010.1 |
| 20260507072941 | 12 | 330 | 0.0 | 1.6 | 0.00 | 0.48 | 0.05 | 90 | 1010.1 |
| 20260507072440 | 12 | 330 | 0.0 | 3.2 | 0.00 | 0.48 | 0.05 | 90 | 1010.2 |
| 20260507071939 | 12 | 330 | 0.0 | 3.2 | 0.00 | 0.48 | 0.05 | 90 | 1010.2 |
| 20260507071440 | 12 | 328 | 0.0 | 6.4 | 0.00 | 0.48 | 0.05 | 89 | 1010.1 |
| 20260507070940 | 12 | 327 | 1.6 | 6.4 | 0.00 | 0.48 | 0.05 | 89 | 1010.0 |
| 20260507070436 | 12 | 227 | 1.6 | 6.4 | 0.00 | 0.48 | 0.05 | 90 | 1010.3 |
| 20260507065938 | 12 | 284 | 1.6 | 6.4 | 0.00 | 0.48 | 0.05 | 90 | 1010.1 |
| 20260507065438 | 12 | 242 | 0.0 | 4.8 | 0.00 | 0.48 | 0.05 | 91 | 1010.3 |
| 20260507064938 | 12 | 238 | 0.0 | 4.8 | 0.00 | 0.48 | 0.05 | 92 | 1010.2 |
| 20260507064436 | 12 | 267 | 0.0 | 3.2 | 0.00 | 0.48 | 0.05 | 92 | 1010.3 |
| 20260507063937 | 12 | 264 | 0.0 | 3.2 | 0.00 | 0.48 | 0.05 | 93 | 1010.3 |
| 20260507063703 | 13 | 265 | 0.0 | 6.4 | 0.03 | 0.48 | 0.05 | 93 | 1010.4 |
| 20260507062937 | 13 | 265 | 0.0 | 6.4 | 0.03 | 0.48 | 0.05 | 93 | 1010.1 |
| 20260507062440 | 13 | 265 | 1.6 | 6.4 | 0.03 | 0.48 | 0.05 | 93 | 1010.0 |
| 20260507061940 | 13 | 271 | 0.0 | 6.4 | 0.03 | 0.48 | 0.05 | 93 | 1010.0 |
| 20260507061436 | 13 | 306 | 0.0 | 3.2 | 0.03 | 0.48 | 0.05 | 94 | 1010.0 |
| 20260507060937 | 13 | 306 | 0.0 | 1.6 | 0.03 | 0.48 | 0.05 | 94 | 1010.2 |
| 20260507060437 | 13 | 306 | 0.0 | 1.6 | 0.03 | 0.48 | 0.05 | 93 | 1010.4 |
| 20260507055938 | 13 | 306 | 0.0 | 1.6 | 0.03 | 0.48 | 0.05 | 93 | 1010.4 |
| 20260507055655 | 13 | 306 | 0.0 | 0.0 | 0.03 | 0.48 | 0.05 | 93 | 1010.2 |
| 20260507054938 | 13 | 306 | 0.0 | 1.6 | 0.05 | 0.48 | 0.05 | 93 | 1010.2 |
| 20260507054439 | 13 | 306 | 0.0 | 1.6 | 0.05 | 0.48 | 0.05 | 93 | 1010.3 |
| 20260507053934 | 13 | 306 | 0.0 | 0.0 | 0.05 | 0.48 | 0.05 | 93 | 1010.4 |
| 20260507053421 | 13 | 306 | 0.0 | 0.0 | 0.03 | 0.46 | 0.03 | 92 | 1010.3 |
| 20260507052902 | 13 | 306 | 0.0 | 0.0 | 0.03 | 0.46 | 0.03 | 92 | 1010.5 |
| 20260507052349 | 13 | 306 | 0.0 | 0.0 | 0.03 | 0.46 | 0.03 | 91 | 1010.5 |
| 20260507051840 | 13 | 306 | 0.0 | 3.2 | 0.03 | 0.46 | 0.03 | 91 | 1010.6 |
| 20260507051322 | 13 | 306 | 0.0 | 3.2 | 0.03 | 0.46 | 0.03 | 91 | 1010.3 |
| 20260507051037 | 13 | 311 | 0.0 | 3.2 | 0.03 | 0.46 | 0.03 | 91 | 1010.2 |
| 20260507050530 | 14 | 311 | 0.0 | 3.2 | 0.03 | 0.46 | 0.03 | 90 | 1010.6 |
| 20260507045746 | 14 | 300 | 0.0 | 4.8 | 0.03 | 0.46 | 0.03 | 89 | 1010.6 |
| 20260507045247 | 14 | 300 | 0.0 | 4.8 | 0.03 | 0.46 | 0.03 | 87 | 1010.3 |
| 20260507044737 | 15 | 333 | 1.6 | 4.8 | 0.00 | 0.43 | 0.00 | 86 | 1010.6 |
| 20260507044231 | 15 | 234 | 1.6 | 4.8 | 0.00 | 0.43 | 0.00 | 85 | 1010.6 |
| 20260507043726 | 15 | 286 | 1.6 | 6.4 | 0.00 | 0.43 | 0.00 | 85 | 1010.2 |
| 20260507043446 | 15 | 333 | 1.6 | 6.4 | 0.00 | 0.43 | 0.00 | 84 | 1010.4 |
| 20260507042704 | 15 | 72 | 0.0 | 3.2 | 0.00 | 0.43 | 0.00 | 84 | 1010.2 |
| 20260507042200 | 15 | 5 | 1.6 | 6.4 | 0.00 | 0.43 | 0.00 | 83 | 1010.4 |
| 20260507041652 | 16 | 315 | 1.6 | 6.4 | 0.00 | 0.43 | 0.00 | 82 | 1010.3 |
| 20260507041411 | 16 | 346 | 1.6 | 9.7 | 0.00 | 0.43 | 0.00 | 82 | 1010.4 |
| 20260507040845 | 16 | 278 | 0.0 | 9.7 | 0.00 | 0.43 | 0.00 | 83 | 1010.4 |
| 20260507040126 | 16 | 311 | 0.0 | 1.6 | 0.00 | 0.43 | 0.00 | 82 | 1009.9 |
| 20260507035617 | 16 | 311 | 0.0 | 3.2 | 0.00 | 0.43 | 0.43 | 81 | 1009.7 |
| 20260507035102 | 16 | 311 | 0.0 | 6.4 | 0.00 | 0.43 | 0.43 | 80 | 1009.7 |
| 20260507035044 | 16 | 327 | 0.0 | 6.4 | 0.00 | 0.43 | 0.43 | 79 | 1009.6 |
| 20260507034311 | 16 | 306 | 0.0 | 6.4 | 0.00 | 0.43 | 0.43 | 79 | 1009.7 |
| 20260507033544 | 16 | 249 | 0.0 | 3.2 | 0.00 | 0.43 | 0.43 | 79 | 1009.4 |
| 20260507033037 | 17 | 246 | 0.0 | 3.2 | 0.00 | 0.43 | 0.43 | 79 | 1009.6 |
| 20260507032522 | 17 | 287 | 0.0 | 3.2 | 0.00 | 0.43 | 0.43 | 78 | 1009.9 |
| 20260507032234 | 17 | 305 | 0.0 | 4.8 | 0.00 | 0.43 | 0.43 | 79 | 1009.7 |
| 20260507031510 | 17 | 277 | 0.0 | 4.8 | 0.00 | 0.43 | 0.43 | 79 | 1009.7 |
| 20260507030957 | 17 | 323 | 0.0 | 3.2 | 0.00 | 0.43 | 0.43 | 79 | 1009.6 |
| 20260507030450 | 17 | 331 | 0.0 | 1.6 | 0.00 | 0.43 | 0.43 | 79 | 1009.6 |
| 20260507025945 | 17 | 331 | 0.0 | 0.0 | 0.00 | 0.43 | 0.43 | 80 | 1009.5 |
| 20260507025439 | 17 | 331 | 0.0 | 3.2 | 0.00 | 0.43 | 0.43 | 80 | 1009.4 |
| 20260507024932 | 17 | 331 | 1.6 | 4.8 | 0.00 | 0.43 | 0.43 | 80 | 1009.4 |
| 20260507024426 | 17 | 315 | 0.0 | 4.8 | 0.00 | 0.43 | 0.43 | 81 | 1009.3 |
| 20260507023913 | 17 | 340 | 1.6 | 8.0 | 0.00 | 0.43 | 0.43 | 83 | 1009.3 |
| 20260507023405 | 18 | 298 | 1.6 | 8.0 | 0.00 | 0.43 | 0.43 | 84 | 1009.4 |
| 20260507022905 | 18 | 336 | 1.6 | 6.4 | 0.00 | 0.43 | 0.43 | 84 | 1009.3 |
| 20260507022401 | 18 | 248 | 1.6 | 6.4 | 0.00 | 0.43 | 0.43 | 85 | 1009.1 |
| 20260507021901 | 18 | 325 | 1.6 | 4.8 | 0.00 | 0.43 | 0.43 | 85 | 1008.9 |
| 20260507021846 | 18 | 308 | 0.0 | 4.8 | 0.00 | 0.43 | 0.43 | 86 | 1009.0 |
| 20260507020859 | 18 | 317 | 0.0 | 4.8 | 0.00 | 0.43 | 0.43 | 87 | 1009.0 |
| 20260507020357 | 18 | 278 | 0.0 | 3.2 | 0.00 | 0.43 | 0.43 | 86 | 1009.1 |
| 20260507015858 | 18 | 278 | 0.0 | 3.2 | 0.00 | 0.43 | 0.43 | 86 | 1009.1 |
| 20260507015357 | 18 | 277 | 0.0 | 3.2 | 0.00 | 0.43 | 0.43 | 86 | 1009.2 |
| 20260507014855 | 18 | 277 | 0.0 | 3.2 | 0.00 | 0.43 | 0.43 | 85 | 1009.0 |
| 20260507014616 | 18 | 267 | 0.0 | 3.2 | 0.00 | 0.43 | 0.43 | 85 | 1008.7 |
| 20260507013856 | 18 | 267 | 0.0 | 4.8 | 0.00 | 0.43 | 0.43 | 85 | 1008.8 |
| 20260507013355 | 18 | 342 | 0.0 | 4.8 | 0.00 | 0.43 | 0.43 | 84 | 1009.1 |
| 20260507012848 | 18 | 317 | 0.0 | 3.2 | 0.00 | 0.43 | 0.43 | 84 | 1009.1 |
| 20260507012348 | 19 | 318 | 0.0 | 3.2 | 0.00 | 0.43 | 0.43 | 84 | 1009.1 |
| 20260507011846 | 19 | 318 | 0.0 | 3.2 | 0.00 | 0.43 | 0.43 | 84 | 1009.1 |
| 20260507011345 | 19 | 325 | 0.0 | 4.8 | 0.00 | 0.43 | 0.43 | 83 | 1009.1 |
| 20260507011110 | 19 | 336 | 1.6 | 4.8 | 0.00 | 0.43 | 0.43 | 84 | 1009.2 |
| 20260507010601 | 19 | 281 | 0.0 | 4.8 | 0.00 | 0.43 | 0.43 | 86 | 1009.2 |
| 20260507005841 | 19 | 316 | 0.0 | 0.0 | 0.00 | 0.43 | 0.43 | 89 | 1009.1 |
| 20260507005342 | 19 | 316 | 0.0 | 0.0 | 0.00 | 0.43 | 0.43 | 89 | 1009.1 |
| 20260507004837 | 19 | 316 | 0.0 | 0.0 | 0.00 | 0.43 | 0.43 | 89 | 1008.8 |
| 20260507004335 | 19 | 316 | 0.0 | 0.0 | 0.00 | 0.43 | 0.43 | 88 | 1008.5 |
| 20260507004106 | 19 | 316 | 0.0 | 0.0 | 0.00 | 0.43 | 0.43 | 88 | 1008.7 |
| 20260507003337 | 19 | 316 | 0.0 | 0.0 | 0.00 | 0.43 | 0.43 | 88 | 1008.7 |
| 20260507002837 | 19 | 316 | 0.0 | 0.0 | 0.00 | 0.43 | 0.43 | 88 | 1008.4 |
| 20260507002336 | 19 | 316 | 0.0 | 0.0 | 0.00 | 0.43 | 0.43 | 88 | 1008.5 |
| 20260507002305 | 19 | 316 | 0.0 | 0.0 | 0.00 | 0.43 | 0.43 | 87 | 1008.4 |
| 20260507001544 | 20 | 316 | 0.0 | 0.0 | 0.00 | 0.43 | 0.43 | 87 | 1008.3 |
| 20260507000810 | 20 | 316 | 0.0 | 0.0 | 0.00 | 0.43 | 0.43 | 86 | 1008.3 |
| 20260507000306 | 20 | 316 | 0.0 | 0.0 | 0.00 | 0.43 | 0.43 | 86 | 1008.3 |
| 20260506235758 | 20 | 316 | 0.0 | 0.0 | 0.00 | 0.43 | 0.43 | 86 | 1008.2 |
| 20260506235257 | 20 | 316 | 0.0 | 0.0 | 0.00 | 0.43 | 0.43 | 86 | 1008.2 |
| 20260506234756 | 20 | 316 | 0.0 | 0.0 | 0.00 | 0.43 | 0.43 | 85 | 1008.2 |
| 20260506234525 | 20 | 316 | 0.0 | 0.0 | 0.00 | 0.43 | 0.43 | 85 | 1007.9 |
| 20260506233756 | 20 | 316 | 0.0 | 0.0 | 0.00 | 0.43 | 0.43 | 85 | 1007.8 |
| 20260506233256 | 20 | 316 | 0.0 | 0.0 | 0.00 | 0.43 | 0.43 | 85 | 1007.8 |
| 20260506232754 | 20 | 316 | 0.0 | 0.0 | 0.00 | 0.43 | 0.43 | 85 | 1008.0 |
| 20260506232254 | 20 | 316 | 0.0 | 0.0 | 0.00 | 0.43 | 0.43 | 85 | 1007.8 |
| 20260506231751 | 20 | 316 | 0.0 | 0.0 | 0.00 | 0.43 | 0.43 | 85 | 1007.6 |
| 20260506231252 | 20 | 316 | 0.0 | 0.0 | 0.00 | 0.43 | 0.43 | 85 | 1007.6 |
| 20260506230749 | 20 | 316 | 0.0 | 0.0 | 0.00 | 0.43 | 0.43 | 84 | 1007.6 |
| 20260506230251 | 20 | 316 | 0.0 | 0.0 | 0.00 | 0.43 | 0.43 | 84 | 1007.8 |
| 20260506225746 | 20 | 316 | 0.0 | 0.0 | 0.00 | 0.43 | 0.43 | 84 | 1007.7 |
| 20260506225503 | 20 | 316 | 0.0 | 0.0 | 0.00 | 0.43 | 0.43 | 84 | 1007.7 |
| 20260506225215 | 20 | 316 | 0.0 | 0.0 | 0.00 | 0.43 | 0.43 | 84 | 1007.8 |
| 20260506224216 | 20 | 316 | 0.0 | 0.0 | 0.00 | 0.43 | 0.43 | 84 | 1007.5 |
| 20260506223717 | 20 | 316 | 0.0 | 0.0 | 0.00 | 0.43 | 0.43 | 84 | 1007.4 |
| 20260506223217 | 20 | 316 | 0.0 | 0.0 | 0.00 | 0.43 | 0.43 | 84 | 1007.5 |
| 20260506222717 | 20 | 316 | 0.0 | 0.0 | 0.00 | 0.43 | 0.43 | 84 | 1007.6 |
| 20260506222216 | 20 | 316 | 0.0 | 0.0 | 0.00 | 0.43 | 0.43 | 84 | 1007.7 |
| 20260506221719 | 20 | 316 | 0.0 | 0.0 | 0.00 | 0.43 | 0.43 | 83 | 1007.7 |
| 20260506221219 | 20 | 316 | 0.0 | 1.6 | 0.00 | 0.43 | 0.43 | 83 | 1007.7 |
| 20260506221203 | 20 | 316 | 0.0 | 1.6 | 0.00 | 0.43 | 0.43 | 82 | 1007.7 |
| 20260506220209 | 20 | 315 | 0.0 | 0.0 | 0.00 | 0.43 | 0.43 | 82 | 1007.7 |
| 20260506215928 | 20 | 315 | 0.0 | 1.6 | 0.00 | 0.43 | 0.43 | 82 | 1007.6 |
| 20260506215637 | 21 | 315 | 0.0 | 3.2 | 0.00 | 0.43 | 0.43 | 82 | 1022.7 |
| 20260506214657 | 21 | 315 | 0.0 | 3.2 | 0.00 | 0.43 | 0.43 | 82 | 1007.7 |
| 20260506214157 | 21 | 311 | 0.0 | 0.0 | 0.00 | 0.43 | 0.43 | 81 | 1007.6 |
| 20260506213657 | 21 | 311 | 0.0 | 1.6 | 0.00 | 0.43 | 0.43 | 81 | 1007.5 |
| 20260506213158 | 21 | 311 | 0.0 | 1.6 | 0.00 | 0.43 | 0.43 | 81 | 1007.4 |
| 20260506213146 | 21 | 310 | 0.0 | 1.6 | 0.00 | 0.43 | 0.43 | 81 | 1007.4 |
| 20260506212156 | 21 | 310 | 0.0 | 6.4 | 0.00 | 0.43 | 0.43 | 81 | 1007.3 |
| 20260506211917 | 21 | 310 | 0.0 | 6.4 | 0.00 | 0.43 | 0.43 | 80 | 1007.3 |
| 20260506211157 | 21 | 11 | 0.0 | 1.6 | 0.00 | 0.43 | 0.43 | 80 | 1007.3 |
| 20260506210657 | 21 | 11 | 0.0 | 1.6 | 0.00 | 0.43 | 0.43 | 80 | 1007.3 |
| 20260506210158 | 21 | 309 | 0.0 | 1.6 | 0.00 | 0.43 | 0.43 | 81 | 1007.2 |
| 20260506205657 | 21 | 311 | 0.0 | 1.6 | 0.00 | 0.43 | 0.43 | 80 | 1007.1 |
| 20260506205157 | 21 | 311 | 0.0 | 4.8 | 0.00 | 0.43 | 0.43 | 80 | 1007.2 |
| 20260506204658 | 21 | 312 | 0.0 | 4.8 | 0.00 | 0.43 | 0.43 | 80 | 1007.2 |
| 20260506204158 | 20 | 335 | 0.0 | 3.2 | 0.00 | 0.43 | 0.43 | 83 | 1006.9 |
| 20260506204145 | 20 | 335 | 0.0 | 3.2 | 0.00 | 0.43 | 0.43 | 82 | 1007.0 |
| 20260506203417 | 20 | 339 | 0.0 | 1.6 | 0.00 | 0.43 | 0.43 | 82 | 1007.1 |
| 20260506202657 | 20 | 340 | 0.0 | 3.2 | 0.00 | 0.43 | 0.43 | 82 | 1007.2 |
| 20260506202157 | 20 | 55 | 0.0 | 3.2 | 0.00 | 0.43 | 0.43 | 82 | 1007.3 |
| 20260506201920 | 20 | 62 | 0.0 | 3.2 | 0.00 | 0.43 | 0.43 | 82 | 1007.2 |
| 20260506201422 | 20 | 338 | 0.0 | 1.6 | 0.00 | 0.43 | 0.43 | 82 | 1007.1 |
| 20260506200656 | 20 | 338 | 0.0 | 3.2 | 0.00 | 0.43 | 0.43 | 81 | 1007.1 |
| 20260506200412 | 20 | 338 | 0.0 | 4.8 | 0.00 | 0.43 | 0.43 | 82 | 1007.1 |
| 20260506195919 | 20 | 333 | 0.0 | 4.8 | 0.00 | 0.43 | 0.43 | 82 | 1007.2 |
| 20260506195406 | 20 | 81 | 0.0 | 1.6 | 0.00 | 0.43 | 0.43 | 81 | 1007.1 |
| 20260506194635 | 20 | 84 | 0.0 | 4.8 | 0.00 | 0.43 | 0.43 | 83 | 1007.1 |
| 20260506194123 | 20 | 84 | 0.0 | 4.8 | 0.00 | 0.43 | 0.43 | 82 | 1007.2 |
| 20260506193622 | 20 | 348 | 1.6 | 3.2 | 0.00 | 0.43 | 0.43 | 82 | 1007.1 |
| 20260506193112 | 20 | 330 | 0.0 | 3.2 | 0.00 | 0.43 | 0.43 | 84 | 1007.3 |
| 20260506192613 | 20 | 355 | 0.0 | 3.2 | 0.00 | 0.43 | 0.43 | 84 | 1007.2 |
| 20260506192114 | 20 | 350 | 0.0 | 3.2 | 0.00 | 0.43 | 0.43 | 84 | 1007.2 |
| 20260506191610 | 20 | 348 | 0.0 | 6.4 | 0.00 | 0.43 | 0.43 | 84 | 1007.3 |
| 20260506191112 | 20 | 280 | 1.6 | 6.4 | 0.00 | 0.43 | 0.43 | 85 | 1007.4 |
| 20260506190614 | 19 | 52 | 1.6 | 4.8 | 0.00 | 0.43 | 0.43 | 85 | 1007.4 |
| 20260506190110 | 19 | 345 | 0.0 | 3.2 | 0.00 | 0.43 | 0.43 | 86 | 1007.5 |
| 20260506185611 | 19 | 355 | 0.0 | 1.6 | 0.00 | 0.43 | 0.43 | 86 | 1007.4 |
| 20260506185336 | 19 | 355 | 0.0 | 4.8 | 0.00 | 0.43 | 0.43 | 87 | 1007.6 |
| 20260506184609 | 18 | 335 | 0.0 | 4.8 | 0.00 | 0.43 | 0.43 | 87 | 1007.7 |
| 20260506184106 | 18 | 19 | 1.6 | 4.8 | 0.00 | 0.43 | 0.43 | 88 | 1007.7 |
| 20260506183608 | 18 | 93 | 0.0 | 8.0 | 0.00 | 0.43 | 0.43 | 88 | 1007.8 |
| 20260506183101 | 18 | 94 | 0.0 | 4.8 | 0.00 | 0.43 | 0.43 | 88 | 1007.9 |
| 20260506182817 | 18 | 50 | 0.0 | 4.8 | 0.00 | 0.43 | 0.43 | 89 | 1007.8 |
| 20260506182048 | 18 | 355 | 0.0 | 4.8 | 0.00 | 0.43 | 0.43 | 89 | 1007.9 |
| 20260506181804 | 18 | 327 | 1.6 | 4.8 | 0.00 | 0.43 | 0.43 | 88 | 1007.8 |
| 20260506181030 | 18 | 355 | 0.0 | 3.2 | 0.00 | 0.43 | 0.43 | 89 | 1007.9 |
| 20260506180523 | 18 | 103 | 0.0 | 3.2 | 0.00 | 0.43 | 0.43 | 90 | 1007.9 |
| 20260506180017 | 18 | 38 | 0.0 | 1.6 | 0.00 | 0.43 | 0.43 | 91 | 1007.9 |
| 20260506175504 | 18 | 42 | 0.0 | 4.8 | 0.00 | 0.43 | 0.43 | 91 | 1008.0 |
| 20260506174957 | 17 | 42 | 1.6 | 8.0 | 0.00 | 0.43 | 0.43 | 91 | 1008.0 |
| 20260506174713 | 17 | 329 | 1.6 | 8.0 | 0.00 | 0.43 | 0.43 | 91 | 1008.0 |
| 20260506174201 | 17 | 23 | 0.0 | 4.8 | 0.00 | 0.43 | 0.43 | 92 | 1008.0 |
| 20260506173426 | 17 | 60 | 0.0 | 4.8 | 0.00 | 0.43 | 0.43 | 92 | 1007.9 |
| 20260506173151 | 17 | 44 | 1.6 | 4.8 | 0.00 | 0.43 | 0.43 | 92 | 1007.9 |
| 20260506172853 | 17 | 37 | 0.0 | 3.2 | 0.00 | 0.43 | 0.43 | 93 | 1008.0 |
| 20260506171905 | 17 | 37 | 1.6 | 8.0 | 0.00 | 0.43 | 0.43 | 93 | 1008.1 |
| 20260506171359 | 17 | 15 | 1.6 | 8.0 | 0.00 | 0.43 | 0.43 | 93 | 1008.2 |
| 20260506170844 | 17 | 44 | 1.6 | 4.8 | 0.00 | 0.43 | 0.43 | 93 | 1008.3 |
| 20260506170334 | 17 | 90 | 0.0 | 4.8 | 0.00 | 0.43 | 0.43 | 94 | 1008.2 |
| 20260506170051 | 17 | 94 | 0.0 | 4.8 | 0.00 | 0.43 | 0.43 | 94 | 1008.2 |
| 20260506165319 | 16 | 116 | 1.6 | 6.4 | 0.00 | 0.43 | 0.43 | 94 | 1008.2 |
| 20260506165036 | 16 | 130 | 1.6 | 8.0 | 0.00 | 0.43 | 0.43 | 95 | 1008.1 |
| 20260506164302 | 16 | 316 | 1.6 | 6.4 | 0.00 | 0.43 | 0.43 | 95 | 1008.3 |
| 20260506163757 | 16 | 39 | 1.6 | 6.4 | 0.00 | 0.43 | 0.43 | 94 | 1008.4 |
| 20260506163250 | 16 | 44 | 1.6 | 11.3 | 0.00 | 0.43 | 0.43 | 95 | 1008.3 |
| 20260506162931 | 16 | 103 | 0.0 | 4.8 | 0.03 | 0.43 | 0.43 | 95 | 1008.3 |
| 20260506162822 | 16 | 328 | 1.6 | 11.3 | 0.00 | 0.43 | 0.43 | 95 | 1008.2 |
| 20260506161730 | 16 | 104 | 1.6 | 8.0 | 0.03 | 0.43 | 0.43 | 95 | 1008.3 |
| 20260506161229 | 16 | 114 | 1.6 | 8.0 | 0.03 | 0.43 | 0.43 | 95 | 1008.7 |
| 20260506160728 | 16 | 116 | 1.6 | 9.7 | 0.03 | 0.43 | 0.43 | 95 | 1008.4 |
| 20260506160228 | 16 | 29 | 1.6 | 9.7 | 0.03 | 0.43 | 0.43 | 95 | 1008.7 |
| 20260506155728 | 16 | 205 | 1.6 | 4.8 | 0.03 | 0.43 | 0.43 | 96 | 1008.5 |
| 20260506155228 | 16 | 21 | 1.6 | 4.8 | 0.03 | 0.43 | 0.43 | 96 | 1008.5 |
| 20260506154730 | 16 | 94 | 1.6 | 3.2 | 0.03 | 0.43 | 0.43 | 95 | 1008.5 |
| 20260506154228 | 16 | 99 | 1.6 | 4.8 | 0.03 | 0.43 | 0.43 | 95 | 1008.5 |
| 20260506153731 | 16 | 114 | 0.0 | 4.8 | 0.03 | 0.43 | 0.43 | 96 | 1008.8 |
| 20260506153445 | 16 | 134 | 1.6 | 4.8 | 0.05 | 0.43 | 0.43 | 95 | 1008.8 |
| 20260506152729 | 16 | 136 | 1.6 | 4.8 | 0.05 | 0.43 | 0.43 | 95 | 1008.7 |
| 20260506152229 | 16 | 126 | 0.0 | 3.2 | 0.03 | 0.41 | 0.41 | 95 | 1008.7 |
| 20260506151723 | 16 | 149 | 1.6 | 6.4 | 0.05 | 0.41 | 0.41 | 95 | 1008.8 |
| 20260506151216 | 16 | 33 | 1.6 | 6.4 | 0.08 | 0.41 | 0.41 | 95 | 1008.9 |
| 20260506150712 | 16 | 193 | 1.6 | 4.8 | 0.10 | 0.41 | 0.41 | 95 | 1009.0 |
| 20260506150436 | 16 | 27 | 0.0 | 3.2 | 0.13 | 0.41 | 0.41 | 95 | 1009.2 |
| 20260506145948 | 16 | 142 | 0.0 | 3.2 | 0.18 | 0.41 | 0.41 | 95 | 1009.3 |
| 20260506145209 | 16 | 142 | 0.0 | 1.6 | 0.18 | 0.41 | 0.41 | 95 | 1009.6 |
| 20260506144709 | 16 | 142 | 0.0 | 3.2 | 0.20 | 0.41 | 0.41 | 95 | 1009.5 |
| 20260506144208 | 16 | 142 | 0.0 | 3.2 | 0.23 | 0.41 | 0.41 | 95 | 1009.4 |
| 20260506143708 | 16 | 142 | 1.6 | 8.0 | 0.25 | 0.41 | 0.41 | 95 | 1009.5 |
| 20260506143208 | 16 | 146 | 0.0 | 8.0 | 0.23 | 0.38 | 0.41 | 95 | 1009.5 |
| 20260506142709 | 16 | 147 | 0.0 | 4.8 | 0.25 | 0.38 | 0.38 | 94 | 1009.5 |
| 20260506142210 | 16 | 147 | 1.6 | 8.0 | 0.25 | 0.38 | 0.38 | 94 | 1009.1 |
| 20260506142150 | 16 | 66 | 0.0 | 8.0 | 0.23 | 0.36 | 0.36 | 94 | 1009.4 |
| 20260506141151 | 16 | 133 | 0.0 | 3.2 | 0.20 | 0.33 | 0.36 | 94 | 1009.4 |
| 20260506140642 | 16 | 132 | 1.6 | 4.8 | 0.20 | 0.30 | 0.30 | 94 | 1009.3 |
| 20260506140140 | 16 | 105 | 0.0 | 6.4 | 0.18 | 0.25 | 0.28 | 94 | 1009.2 |
| 20260506135641 | 16 | 145 | 0.0 | 6.4 | 0.15 | 0.23 | 0.25 | 93 | 1009.3 |
| 20260506135140 | 16 | 141 | 0.0 | 4.8 | 0.15 | 0.23 | 0.23 | 93 | 1009.5 |
| 20260506134639 | 16 | 74 | 0.0 | 3.2 | 0.15 | 0.20 | 0.20 | 93 | 1009.5 |
| 20260506134137 | 16 | 314 | 0.0 | 3.2 | 0.13 | 0.18 | 0.18 | 93 | 1009.6 |
| 20260506133638 | 16 | 313 | 0.0 | 3.2 | 0.13 | 0.15 | 0.15 | 93 | 1009.7 |
| 20260506133356 | 16 | 311 | 0.0 | 1.6 | 0.13 | 0.15 | 0.15 | 93 | 1009.9 |
| 20260506132636 | 16 | 311 | 0.0 | 3.2 | 0.13 | 0.13 | 0.13 | 92 | 1010.0 |
| 20260506132358 | 16 | 311 | 0.0 | 3.2 | 0.13 | 0.13 | 0.13 | 92 | 1009.9 |
| 20260506131633 | 16 | 310 | 0.0 | 1.6 | 0.13 | 0.13 | 0.13 | 92 | 1009.6 |
| 20260506131129 | 16 | 310 | 0.0 | 0.0 | 0.10 | 0.10 | 0.10 | 91 | 1009.6 |
| 20260506130619 | 16 | 310 | 0.0 | 0.0 | 0.10 | 0.10 | 0.10 | 91 | 1009.5 |
| 20260506130119 | 16 | 310 | 0.0 | 1.6 | 0.08 | 0.08 | 0.08 | 90 | 1009.5 |
| 20260506125619 | 16 | 310 | 0.0 | 1.6 | 0.08 | 0.08 | 0.08 | 89 | 1009.4 |
| 20260506125118 | 16 | 310 | 0.0 | 0.0 | 0.08 | 0.08 | 0.08 | 89 | 1009.3 |
| 20260506124617 | 17 | 310 | 0.0 | 0.0 | 0.05 | 0.05 | 0.05 | 89 | 1009.2 |
| 20260506124121 | 17 | 310 | 0.0 | 1.6 | 0.05 | 0.05 | 0.05 | 88 | 1009.2 |
| 20260506123620 | 17 | 310 | 0.0 | 1.6 | 0.03 | 0.03 | 0.03 | 87 | 1009.2 |
| 20260506123113 | 17 | 310 | 0.0 | 0.0 | 0.00 | 0.00 | 0.03 | 86 | 1009.4 |
| 20260506122600 | 17 | 310 | 0.0 | 0.0 | 0.00 | 0.00 | 0.00 | 84 | 1009.4 |
| 20260506122057 | 17 | 310 | 0.0 | 0.0 | 0.00 | 0.00 | 0.00 | 85 | 1009.5 |
| 20260506121559 | 17 | 310 | 0.0 | 1.6 | 0.00 | 0.00 | 0.00 | 83 | 1009.7 |
| 20260506121100 | 17 | 310 | 0.0 | 3.2 | 0.00 | 0.00 | 0.00 | 82 | 1009.8 |
| 20260506120602 | 17 | 310 | 0.0 | 3.2 | 0.00 | 0.00 | 0.00 | 82 | 1009.8 |
| 20260506120100 | 18 | 310 | 0.0 | 1.6 | 0.00 | 0.00 | 0.00 | 81 | 1009.7 |
| 20260506115600 | 18 | 333 | 0.0 | 1.6 | 0.00 | 0.00 | 0.00 | 80 | 1009.7 |